FW1654 Weather Reports


Display with metric or nautical units.
time (UTC)temp
F
wind
direction
speed
MPH
gust
MPH
rain 1hr
in
rain 24hr
in
rain mn
in
humidity
%
barometer
mb
20260903011954 82 357 2.0 2.0 0.00 0.00 0.00 77 1021.8
20260903011940 82 356 2.0 3.0 0.00 0.00 0.00 77 1021.8
20260903010947 83 356 0.0 3.0 0.00 0.00 0.00 77 1021.6
20260903010451 83 357 0.0 2.0 0.00 0.00 0.00 77 1021.6
20260903005948 83 357 1.0 2.0 0.00 0.00 0.00 76 1021.6
20260903005447 83 357 1.0 2.0 0.00 0.00 0.00 75 1021.6
20260903004947 83 357 2.0 2.0 0.00 0.00 0.00 75 1021.6
20260903004445 83 356 2.0 3.0 0.00 0.00 0.00 74 1021.6
20260903003942 84 357 2.0 3.0 0.00 0.00 0.00 74 1021.4
20260903003440 85 357 3.0 3.0 0.00 0.00 0.00 71 1021.4
20260903002927 85 357 3.0 4.0 0.00 0.00 0.00 71 1021.4
20260903002419 85 357 3.0 4.0 0.00 0.00 0.00 71 1021.3
20260903001922 85 358 2.0 4.0 0.00 0.00 0.00 70 1021.3
20260903001415 86 358 2.0 4.0 0.00 0.00 0.00 69 1021.3
20260903001122 87 358 2.0 4.0 0.00 0.00 0.00 66 1021.3
20260903001010 86 358 2.0 4.0 0.00 0.00 0.00 68 1021.3
20260902235915 87 358 2.0 4.0 0.00 0.00 0.00 65 1021.3
20260902235415 88 358 2.0 3.0 0.00 0.00 0.00 64 1021.4
20260902234912 89 358 2.0 3.0 0.00 0.00 0.00 63 1021.4
20260902234406 92 358 1.0 2.0 0.00 0.00 0.00 56 1021.4
20260902233855 92 358 1.0 2.0 0.00 0.00 0.00 56 1021.4
20260902233350 92 358 1.0 3.0 0.00 0.00 0.00 56 1021.4
20260902232829 92 358 1.0 3.0 0.00 0.00 0.00 57 1021.4
20260902232326 92 358 1.0 2.0 0.00 0.00 0.00 54 1021.4
20260902232035 93 358 2.0 3.0 0.00 0.00 0.00 54 1021.4
20260902231305 93 358 2.0 3.0 0.00 0.00 0.00 52 1021.4
20260902230754 94 358 2.0 3.0 0.00 0.00 0.00 50 1021.4
20260902230247 94 358 2.0 3.0 0.00 0.00 0.00 50 1021.4
20260902225747 95 358 1.0 3.0 0.00 0.00 0.00 49 1021.4
20260902225245 95 358 1.0 3.0 0.00 0.00 0.00 49 1021.4
20260902224727 95 4 2.0 3.0 0.00 0.00 0.00 49 1021.4
20260902224451 95 4 2.0 3.0 0.00 0.00 0.00 49 1021.5
20260902223946 95 4 2.0 3.0 0.00 0.00 0.00 48 1021.5
20260902223224 95 4 2.0 3.0 0.00 0.00 0.00 48 1021.5
20260902222728 95 7 2.0 3.0 0.00 0.00 0.00 49 1021.5
20260902222212 96 7 2.0 3.0 0.00 0.00 0.00 47 1021.5
20260902221709 96 328 1.0 3.0 0.00 0.00 0.00 47 1021.5
20260902221210 97 309 1.0 3.0 0.00 0.00 0.00 47 1021.6
20260902220935 97 202 1.0 3.0 0.00 0.00 0.00 47 1021.6
20260902220210 97 203 1.0 3.0 0.00 0.00 0.00 47 1021.6
20260902215705 97 203 2.0 3.0 0.00 0.00 0.00 48 1021.6
20260902215419 97 198 2.0 3.0 0.00 0.00 0.00 46 1021.6
20260902214657 96 203 2.0 4.0 0.00 0.00 0.00 47 1021.6
20260902214154 96 202 2.0 4.0 0.00 0.00 0.00 46 1021.5
20260902213912 96 217 2.0 3.0 0.00 0.00 0.00 47 1021.5
20260902213155 96 216 2.0 3.0 0.00 0.00 0.00 46 1021.5
20260902212644 96 249 2.0 3.0 0.00 0.00 0.00 46 1021.6
20260902212359 95 290 2.0 4.0 0.00 0.00 0.00 48 1021.6
20260902211631 95 312 2.0 4.0 0.00 0.00 0.00 47 1021.6
20260902211351 95 250 2.0 4.0 0.00 0.00 0.00 48 1021.7
20260902210627 95 110 2.0 3.0 0.00 0.00 0.00 49 1021.7
20260902210127 95 7 2.0 4.0 0.00 0.00 0.00 47 1021.7
20260902205630 95 5 2.0 4.0 0.00 0.00 0.00 47 1021.8
20260902205125 95 5 2.0 4.0 0.00 0.00 0.00 47 1021.8
20260902204855 95 340 2.0 4.0 0.00 0.00 0.00 50 1021.8
20260902204124 95 14 2.0 4.0 0.00 0.00 0.00 47 1021.9
20260902203625 94 280 2.0 3.0 0.00 0.00 0.00 49 1021.9
20260902203124 93 30 2.0 4.0 0.00 0.00 0.00 52 1021.9
20260902202622 92 211 2.0 4.0 0.00 0.00 0.00 52 1022.0
20260902202122 92 359 2.0 4.0 0.00 0.00 0.00 52 1022.0
20260902201839 92 3 2.0 4.0 0.00 0.00 0.00 51 1022.0
20260902201559 92 356 3.0 4.0 0.00 0.00 0.00 54 1022.1
20260902200818 91 220 3.0 5.0 0.00 0.00 0.00 52 1022.1
20260902200326 91 356 2.0 5.0 0.00 0.00 0.00 51 1022.1
20260902195600 92 5 2.0 6.0 0.00 0.00 0.00 51 1022.2
20260902195059 92 29 2.0 6.0 0.00 0.00 0.00 53 1022.2
20260902194559 92 79 2.0 3.0 0.00 0.00 0.00 54 1022.2
20260902194059 92 44 2.0 3.0 0.00 0.00 0.00 54 1022.5
20260902193558 92 63 2.0 4.0 0.00 0.00 0.00 52 1022.5
20260902193056 92 51 2.0 5.0 0.00 0.00 0.00 50 1022.5
20260902192557 93 0 2.0 5.0 0.00 0.00 0.00 50 1022.6
20260902192057 93 265 3.0 5.0 0.00 0.00 0.00 51 1022.6
20260902191558 93 337 3.0 5.0 0.00 0.00 0.00 52 1022.6
20260902191052 93 353 4.0 7.0 0.00 0.00 0.00 52 1022.6
20260902190549 93 207 4.0 9.0 0.00 0.00 0.00 51 1022.6
20260902190047 92 198 2.0 9.0 0.00 0.00 0.00 51 1022.6
20260902185547 92 213 2.0 6.0 0.00 0.00 0.00 53 1022.9
20260902185047 91 253 2.0 5.0 0.00 0.00 0.00 53 1022.9
20260902184546 91 87 2.0 6.0 0.00 0.00 0.00 54 1022.9
20260902184044 91 350 3.0 6.0 0.00 0.00 0.00 53 1022.9
20260902183534 91 73 3.0 6.0 0.00 0.00 0.00 54 1022.9
20260902183034 91 355 3.0 5.0 0.00 0.00 0.00 55 1022.9
20260902182736 90 173 2.0 6.0 0.00 0.00 0.00 56 1023.1
20260902182618 90 341 3.0 5.0 0.00 0.00 0.00 54 1023.1
20260902181527 91 315 2.0 6.0 0.00 0.00 0.00 57 1023.1
20260902181249 91 74 2.0 5.0 0.00 0.00 0.00 56 1023.3
20260902180740 91 339 2.0 5.0 0.00 0.00 0.00 58 1023.3
20260902180021 90 6 2.0 5.0 0.00 0.00 0.00 57 1023.3
20260902175514 90 16 2.0 5.0 0.00 0.00 0.00 53 1023.4
20260902175231 90 74 2.0 5.0 0.00 0.00 0.00 55 1023.4
20260902174518 90 9 2.0 5.0 0.00 0.00 0.00 54 1023.4
20260902174014 90 339 2.0 5.0 0.00 0.00 0.00 57 1023.6
20260902173435 90 339 2.0 5.0 0.00 0.00 0.00 58 1023.6
20260902172921 90 339 2.0 6.0 0.00 0.00 0.00 58 1023.6
20260902172901 90 339 2.0 6.0 0.00 0.00 0.00 58 1023.9
20260902171914 90 29 3.0 6.0 0.00 0.00 0.00 58 1023.9
20260902171417 90 263 3.0 6.0 0.00 0.00 0.00 60 1023.9
20260902170914 89 198 3.0 5.0 0.00 0.00 0.00 62 1024.0
20260902170414 89 213 3.0 5.0 0.00 0.00 0.00 64 1024.0
20260902165914 89 331 2.0 6.0 0.00 0.00 0.00 62 1024.0
20260902165404 88 212 2.0 6.0 0.00 0.00 0.00 67 1024.2
20260902164904 88 223 2.0 4.0 0.00 0.00 0.00 65 1024.2
20260902164404 88 116 2.0 4.0 0.00 0.00 0.00 65 1024.2
20260902163904 87 211 2.0 6.0 0.00 0.00 0.00 66 1024.3
20260902163404 87 212 2.0 6.0 0.00 0.00 0.00 66 1024.3
20260902163124 87 193 2.0 5.0 0.00 0.00 0.00 69 1024.3
20260902162404 87 197 2.0 5.0 0.00 0.00 0.00 68 1024.4
20260902162131 86 179 2.0 5.0 0.00 0.00 0.00 70 1024.4
20260902161404 86 192 2.0 4.0 0.00 0.00 0.00 73 1024.4
20260902160904 85 85 3.0 4.0 0.00 0.00 0.00 72 1024.6
20260902160404 85 13 3.0 5.0 0.00 0.00 0.00 73 1024.6
20260902155904 85 173 2.0 5.0 0.00 0.00 0.00 72 1024.6
20260902155404 85 210 2.0 5.0 0.00 0.00 0.00 73 1024.6
20260902154902 84 180 2.0 4.0 0.00 0.00 0.00 73 1024.6
20260902154402 84 216 2.0 4.0 0.00 0.00 0.00 75 1024.6
20260902153904 84 183 2.0 5.0 0.00 0.00 0.00 75 1024.7
20260902153346 83 192 2.0 5.0 0.00 0.00 0.00 78 1024.7
20260902152846 83 92 2.0 5.0 0.00 0.00 0.00 78 1024.7
20260902152347 83 192 2.0 5.0 0.00 0.00 0.00 77 1024.7
20260902151846 82 209 2.0 4.0 0.00 0.00 0.00 77 1024.7
20260902151344 82 214 2.0 4.0 0.00 0.00 0.00 79 1024.7
20260902150844 81 189 2.0 4.0 0.00 0.00 0.00 79 1024.7
20260902150347 81 175 2.0 4.0 0.00 0.00 0.00 81 1024.7
20260902145821 81 161 2.0 4.0 0.00 0.00 0.00 82 1024.7
20260902145320 80 11 2.0 4.0 0.00 0.00 0.00 80 1024.5
20260902144822 80 65 2.0 3.0 0.00 0.00 0.00 82 1024.5
20260902144549 80 333 2.0 3.0 0.00 0.00 0.00 84 1024.5
20260902143811 79 336 1.0 3.0 0.00 0.00 0.00 86 1024.4
20260902143308 79 196 1.0 3.0 0.00 0.00 0.00 85 1024.4
20260902142806 78 260 2.0 5.0 0.00 0.00 0.00 87 1024.4
20260902142306 78 259 2.0 5.0 0.00 0.00 0.00 86 1024.5
20260902141758 78 10 2.0 4.0 0.00 0.00 0.00 87 1024.5
20260902141512 78 66 2.0 4.0 0.00 0.00 0.00 88 1024.5
20260902141229 77 340 2.0 4.0 0.00 0.00 0.00 88 1024.5
20260902140241 77 347 2.0 4.0 0.00 0.00 0.00 88 1024.5
20260902135726 77 61 3.0 4.0 0.00 0.00 0.00 91 1024.7
20260902135224 76 48 3.0 5.0 0.00 0.00 0.00 91 1024.7
20260902134722 76 336 2.0 5.0 0.00 0.00 0.00 90 1024.7
20260902134214 76 0 2.0 5.0 0.00 0.00 0.00 91 1024.6
20260902133714 76 33 3.0 4.0 0.00 0.00 0.00 92 1024.6
20260902133430 76 72 3.0 4.0 0.00 0.00 0.00 92 1024.6
20260902132709 75 3 2.0 4.0 0.00 0.00 0.00 92 1024.6
20260902132207 75 12 2.0 4.0 0.00 0.00 0.00 94 1024.6
20260902131704 75 70 2.0 4.0 0.00 0.00 0.00 93 1024.6
20260902131154 75 71 2.0 4.0 0.00 0.00 0.00 94 1024.7
20260902130654 74 73 2.0 4.0 0.00 0.00 0.00 95 1024.7
20260902130151 74 72 2.0 4.0 0.00 0.00 0.00 96 1024.7
20260902125646 74 7 2.0 4.0 0.00 0.00 0.00 96 1024.7
20260902125145 74 54 2.0 3.0 0.00 0.00 0.00 97 1024.7
20260902124644 73 15 2.0 4.0 0.00 0.00 0.00 97 1024.7
20260902124144 73 4 2.0 4.0 0.00 0.00 0.00 97 1024.6
20260902123642 73 51 2.0 4.0 0.00 0.00 0.00 98 1024.6
20260902123140 73 21 2.0 4.0 0.00 0.00 0.00 98 1024.6
20260902122852 72 66 2.0 4.0 0.00 0.00 0.00 98 1024.5
20260902122355 72 17 2.0 4.0 0.00 0.00 0.00 98 1024.5
20260902121622 72 10 2.0 4.0 0.00 0.00 0.00 98 1024.5
20260902121123 72 37 2.0 4.0 0.00 0.00 0.00 99 1024.4
20260902120618 72 41 2.0 4.0 0.00 0.00 0.00 99 1024.4
20260902120120 71 15 2.0 5.0 0.00 0.00 0.00 99 1024.4
20260902115613 71 19 3.0 5.0 0.00 0.00 0.00 99 1024.2
20260902115349 71 25 3.0 5.0 0.00 0.00 0.00 99 1024.2
20260902114608 71 359 3.0 4.0 0.00 0.00 0.00 99 1024.2
20260902114108 71 3 2.0 4.0 0.00 0.00 0.00 99 1024.0
20260902113609 71 4 2.0 5.0 0.00 0.00 0.00 99 1024.0
20260902113109 71 347 2.0 5.0 0.00 0.00 0.00 99 1024.0
20260902112612 71 20 2.0 4.0 0.00 0.00 0.00 99 1023.9
20260902112054 71 27 3.0 4.0 0.00 0.00 0.00 98 1023.9
20260902111551 71 4 3.0 5.0 0.00 0.00 0.00 98 1023.9
20260902111051 71 338 3.0 5.0 0.00 0.00 0.00 98 1023.7
20260902110551 71 1 3.0 5.0 0.00 0.00 0.00 98 1023.7
20260902110044 71 4 2.0 5.0 0.00 0.00 0.00 98 1023.7
20260902105810 71 19 2.0 5.0 0.00 0.00 0.00 98 1023.7
20260902105042 71 12 2.0 4.0 0.00 0.00 0.00 98 1023.7
20260902104542 71 16 2.0 4.0 0.00 0.00 0.00 98 1023.7
20260902104041 71 19 2.0 4.0 0.00 0.00 0.00 98 1023.6
20260902103539 71 13 2.0 4.0 0.00 0.00 0.00 98 1023.6
20260902103036 71 0 2.0 4.0 0.00 0.00 0.00 98 1023.6
20260902102536 71 7 2.0 4.0 0.00 0.00 0.00 98 1023.5
20260902102036 71 8 2.0 5.0 0.00 0.00 0.00 98 1023.5
20260902101536 71 19 2.0 5.0 0.00 0.00 0.00 98 1023.5
20260902101034 71 14 2.0 5.0 0.00 0.00 0.00 98 1023.5
20260902100533 72 22 2.0 5.0 0.00 0.00 0.00 98 1023.5
20260902100303 72 19 2.0 5.0 0.00 0.00 0.00 98 1023.5
20260902095754 72 1 2.0 4.0 0.00 0.00 0.00 98 1023.4
20260902095032 72 21 2.0 4.0 0.00 0.00 0.00 98 1023.4
20260902094531 72 22 2.0 4.0 0.00 0.00 0.00 98 1023.4
20260902094026 72 2 2.0 4.0 0.00 0.00 0.00 98 1023.3
20260902093747 72 9 2.0 3.0 0.00 0.00 0.00 98 1023.3
20260902093241 72 15 2.0 3.0 0.00 0.00 0.00 98 1023.3
20260902092513 72 13 2.0 4.0 0.00 0.00 0.00 98 1023.1
20260902092014 72 25 3.0 5.0 0.00 0.00 0.00 98 1023.1
20260902091513 72 25 3.0 5.0 0.00 0.00 0.00 98 1023.1
20260902091013 72 11 3.0 4.0 0.00 0.00 0.00 98 1023.3
20260902090513 72 3 3.0 4.0 0.00 0.00 0.00 98 1023.3
20260902085954 72 6 2.0 5.0 0.00 0.00 0.00 98 1023.3
20260902085448 72 7 2.0 5.0 0.00 0.00 0.00 98 1023.1
20260902084951 72 351 2.0 5.0 0.00 0.00 0.00 98 1023.1
20260902084446 72 5 2.0 3.0 0.00 0.00 0.00 98 1023.1
20260902083948 73 25 2.0 3.0 0.00 0.00 0.00 98 1023.1
20260902083431 73 25 2.0 3.0 0.00 0.00 0.00 98 1023.1
20260902083147 73 25 2.0 4.0 0.00 0.00 0.00 98 1023.1
20260902082403 73 24 2.0 4.0 0.00 0.00 0.00 98 1023.0
20260902082124 73 341 2.0 4.0 0.00 0.00 0.00 98 1023.0
20260902081849 73 18 2.0 4.0 0.00 0.00 0.00 98 1023.0
20260902080854 73 24 3.0 4.0 0.00 0.00 0.00 98 1023.0
20260902080614 73 31 3.0 4.0 0.00 0.00 0.00 98 1023.0
20260902075852 73 13 2.0 5.0 0.00 0.00 0.00 97 1023.0
20260902075615 73 5 2.0 5.0 0.00 0.00 0.00 97 1022.9
20260902074851 73 16 2.0 4.0 0.00 0.00 0.00 97 1022.9
20260902074351 73 13 2.0 4.0 0.00 0.00 0.00 97 1022.9
20260902073849 73 14 2.0 4.0 0.00 0.00 0.00 97 1022.9
20260902073343 73 21 2.0 5.0 0.00 0.00 0.00 97 1022.9
20260902072843 73 53 2.0 5.0 0.00 0.00 0.00 97 1022.9
20260902072344 73 13 2.0 3.0 0.00 0.00 0.00 97 1023.0
20260902071841 73 13 2.0 3.0 0.00 0.00 0.00 97 1023.0
20260902071338 73 13 2.0 4.0 0.00 0.00 0.00 97 1023.0
20260902070839 73 13 2.0 5.0 0.00 0.00 0.00 97 1023.0
20260902070336 73 10 2.0 5.0 0.00 0.00 0.00 97 1023.0
20260902065839 73 12 3.0 4.0 0.00 0.00 0.00 97 1023.0
20260902065331 73 22 3.0 5.0 0.00 0.00 0.00 97 1023.0
20260902064828 74 351 3.0 5.0 0.00 0.00 0.00 97 1023.0
20260902064329 74 4 3.0 5.0 0.00 0.00 0.00 97 1023.0
20260902063829 74 9 2.0 5.0 0.00 0.00 0.00 97 1023.1
20260902063328 74 15 2.0 4.0 0.00 0.00 0.00 97 1023.1
20260902062823 74 6 2.0 4.0 0.00 0.00 0.00 96 1023.1
20260902062321 74 10 2.0 4.0 0.00 0.00 0.00 97 1023.0
20260902062037 74 2 2.0 5.0 0.00 0.00 0.00 97 1023.0
20260902061314 74 4 2.0 4.0 0.00 0.00 0.00 97 1023.0
20260902060808 74 3 3.0 6.0 0.00 0.00 0.00 97 1023.0
20260902060306 74 355 3.0 6.0 0.00 0.00 0.00 96 1023.0
20260902055806 74 10 3.0 5.0 0.00 0.00 0.00 96 1023.0
20260902055259 74 22 3.0 5.0 0.00 0.00 0.00 96 1022.9
20260902054757 74 2 3.0 5.0 0.00 0.00 0.00 96 1022.9
20260902054514 74 15 3.0 5.0 0.00 0.00 0.00 96 1022.9
20260902054019 74 3 2.0 5.0 0.00 0.00 0.00 96 1022.9
20260902053254 74 2 2.0 5.0 0.00 0.00 0.00 96 1022.9
20260902052749 75 11 4.0 5.0 0.00 0.00 0.00 96 1022.9
20260902052247 75 15 4.0 6.0 0.00 0.00 0.00 96 1023.0
20260902052208 75 4 2.0 6.0 0.00 0.00 0.00 96 1023.0
20260902051233 75 4 2.0 5.0 0.00 0.00 0.00 94 1023.0
20260902050719 75 4 3.0 5.0 0.00 0.00 0.00 95 1022.9
20260902050219 75 6 3.0 5.0 0.00 0.00 0.00 95 1022.9
20260902045719 75 3 2.0 5.0 0.00 0.00 0.00 95 1022.9
20260902045216 76 0 2.0 4.0 0.00 0.00 0.00 94 1022.9
20260902044713 76 16 2.0 4.0 0.00 0.00 0.00 94 1022.9
20260902044213 76 11 2.0 4.0 0.00 0.00 0.00 94 1022.9
20260902043713 76 10 2.0 3.0 0.00 0.00 0.00 94 1022.9
20260902043438 76 10 2.0 4.0 0.00 0.00 0.00 94 1022.9
20260902042714 76 358 2.0 4.0 0.00 0.00 0.00 94 1022.8
20260902042208 76 354 2.0 4.0 0.00 0.00 0.00 93 1022.8
20260902041919 76 358 3.0 4.0 0.00 0.00 0.00 93 1022.8
20260902041159 76 357 3.0 4.0 0.00 0.00 0.00 93 1022.7
20260902040658 76 4 2.0 4.0 0.00 0.00 0.00 92 1022.7
20260902040158 76 340 2.0 4.0 0.00 0.00 0.00 92 1022.7
20260902035653 76 305 0.0 3.0 0.00 0.00 0.00 92 1022.6
20260902035153 76 303 0.0 2.0 0.00 0.00 0.00 91 1022.6
20260902034624 76 303 0.0 2.0 0.00 0.00 0.00 90 1022.6
20260902034121 76 303 0.0 2.0 0.00 0.00 0.00 90 1022.7
20260902033620 77 303 0.0 2.0 0.00 0.00 0.00 90 1022.7
20260902033119 77 303 0.0 2.0 0.00 0.00 0.00 89 1022.7
20260902032618 77 303 1.0 2.0 0.00 0.00 0.00 89 1022.6
20260902032117 77 303 1.0 2.0 0.00 0.00 0.00 89 1022.6
20260902031621 77 303 2.0 3.0 0.00 0.00 0.00 89 1022.6
20260902031303 77 303 1.0 3.0 0.00 0.00 0.00 88 1022.7
20260902030533 77 303 1.0 3.0 0.00 0.00 0.00 88 1022.7
20260902030033 77 303 2.0 3.0 0.00 0.00 0.00 87 1022.7
20260902025537 78 303 2.0 3.0 0.00 0.00 0.00 87 1022.6
20260902025016 78 303 2.0 3.0 0.00 0.00 0.00 87 1022.6
20260902024519 78 303 2.0 3.0 0.00 0.00 0.00 87 1022.6
20260902024011 78 303 0.0 2.0 0.00 0.00 0.00 86 1022.6
20260902023510 78 303 0.0 2.0 0.00 0.00 0.00 86 1022.6
20260902023010 78 303 0.0 0.0 0.00 0.00 0.00 85 1022.6
20260902022451 78 303 0.0 2.0 0.00 0.00 0.00 84 1022.5
20260902021913 79 303 2.0 2.0 0.00 0.00 0.00 84 1022.5
20260902021414 79 303 2.0 3.0 0.00 0.00 0.00 84 1022.5
20260902020912 79 303 0.0 3.0 0.00 0.00 0.00 84 1022.4
20260902020359 79 303 0.0 2.0 0.00 0.00 0.00 83 1022.4
20260902015855 79 303 0.0 0.0 0.00 0.00 0.00 83 1022.4
20260902015351 79 303 0.0 1.0 0.00 0.00 0.00 82 1022.3
20260902014850 79 303 2.0 1.0 0.00 0.00 0.00 82 1022.3
20260902014341 80 303 2.0 3.0 0.00 0.00 0.00 82 1022.3
20260902014102 80 303 2.0 3.0 0.00 0.00 0.00 81 1022.1
20260902013326 80 286 2.0 3.0 0.00 0.00 0.00 80 1022.1
20260902012828 80 203 2.0 3.0 0.00 0.00 0.00 79 1022.1
20260902012326 80 203 2.0 3.0 0.00 0.00 0.00 79 1022.1
20260902012052 80 203 0.0 3.0 0.00 0.00 0.00 78 1022.1